格洛纳斯-790 COSMOS 2380 [GLONASS]

导读

COSMOS 2380是苏联/俄罗斯联邦独立国家联合体(CIS)于2001年12月1日发射的GLONASS(格洛纳斯)全球导航卫星系统组网卫星。作为格洛纳斯系统空间段组成部分,它承担导航信号播发任务,为全球陆海空用户提供位置坐标与运动速度测定服务,助力俄罗斯打破美国卫星导航领域的垄断格局,该卫星轨道编号为790。

基本信息
目录编号:
26989
目录名称:
COSMOS 2380 (GLONASS)
国际标识:
2001-053C
轨道中心:
EARTH
卫星名称:
格洛纳斯-790
卫星全名:
格洛纳斯-790 COSMOS 2380 [GLONASS]
卫星状态:
在轨 (已飞行8959 天)
发射日期:
2001-12-01 UTC
国别 :
俄罗斯(独联体) (CIS)
星等 :
--
轨道信息
数据来源 国际轨道数据 AOE轨道数据
星历时间 2026-06-12T11:55:51+0800
15小时前
查看轨道信息
2026-06-12T00:00:00+0800
1天前
查看轨道信息
半长轴 25507.977km 25507.977km
偏心率 0.0006882 0.0007032
轨道倾角 64.079° 64.079°
近地点辐角 43.868° 46.113°
升交点赤经 57.600° 57.618°
平近点角 144.468° 120.845°
近地点 19112.285km 19111.902km
远地点 19147.395km 19147.778km
周期 675.731分钟 675.731分钟
每日圈数 2.131026 2.131026
详细信息
平衡模式:
三轴稳定
覆盖范围:
全球
运营商:
列舍特涅夫卫星信息系统
运营商所在国:
俄罗斯
制造商(研发单位):
列舍特涅夫卫星信息系统
制造商所在国:
俄罗斯
使用方式:
暂无
卫星简介
格洛纳斯(GLONASS )是苏联/俄罗斯研制卫星导航系统。标准配置为24颗卫星,其中18颗卫星就能保证该系统为俄罗斯境内用户提供全部服务。该卫星已退役。
2D轨道图
3D轨道图
轨道高度分析图
轨道倾角分析图
轨道综合分析图
查看轨道综合分析图